Cape Peony — 3FDX6 — position and weather

sailwx.info

Track history (hours):
 
Tides and Currents Weather Stations Pressure Air Temp Water Temp Dewpoint Dewpoint Depression Visibility Wind Speed Wind Dir Waves Ship Positions

Cape Peony

Last reported at 2016-Jul-02 01:03 UTC. Time now 2016-Jul-26 21:49 UTC.
Position N 33°54' E 134°55'.
Warning: this ship's position is 24 days out of date.

Length 292 m; draft 10.7 m.

Type: Cargo ship. MMSI: 373590000.

Date/timePositionNaut miles runAvg speedWind from/ knotsBaromVisibWave heightAir tempDewpointWater temp
2016-Jul-02 01:03N 33°54' E 134°55'510.2
2016-Jul-02 00:33N 33°59' E 134°55'10 9.5
2016-Jul-01 23:33N 34°08' E 134°59'9 8.8
2016-Jul-01 22:33N 34°14' E 135°06'2 1.7
2016-Jul-01 21:33N 34°14' E 135°08'0 0.0
2016-Jul-01 20:33N 34°14' E 135°08'0 0.0
2016-Jul-01 19:33N 34°14' E 135°08'0 0.0
2016-Jul-01 18:33N 34°14' E 135°08'0 0.0
2016-Jul-01 17:33N 34°14' E 135°08'0 0.0
2016-Jul-01 16:33N 34°14' E 135°08'0 0.0
2016-Jul-01 15:33N 34°14' E 135°08'0 0.0
2016-Jul-01 14:33N 34°14' E 135°08'0 0.0
2016-Jul-01 13:33N 34°14' E 135°08'0 0.0
2016-Jul-01 12:33N 34°14' E 135°08'0 0.0
2016-Jul-01 11:33N 34°14' E 135°08'0 0.0
2016-Jul-01 10:33N 34°14' E 135°08'0 0.0
2016-Jul-01 09:30N 34°14' E 135°08'0 0.0
2016-Jul-01 08:33N 34°14' E 135°08'0 0.0
2016-Jul-01 07:33N 34°14' E 135°08'0 0.0
2016-Jul-01 06:33N 34°14' E 135°08'0 0.0
2016-Jul-01 05:33N 34°14' E 135°08'0 0.0
2016-Jul-01 04:33N 34°14' E 135°08'0 0.0
2016-Jul-01 03:30N 34°14' E 135°08'0 0.0
2016-Jul-01 02:33N 34°14' E 135°08'0 0.0
2016-Jul-01 01:33N 34°14' E 135°08'0 0.0
2016-Jul-01 00:33N 34°14' E 135°08'0 0.0
2016-Jun-30 23:33N 34°14' E 135°08'0 0.0
2016-Jun-30 22:30N 34°14' E 135°08'0 0.0
2016-Jun-30 21:33N 34°14' E 135°08'0 0.0
2016-Jun-30 20:33N 34°14' E 135°08'0 0.0
2016-Jun-30 19:33N 34°14' E 135°08'0 0.0
2016-Jun-30 18:33N 34°14' E 135°08'0 0.0
2016-Jun-30 17:33N 34°14' E 135°08'0 0.0
2016-Jun-30 16:33N 34°14' E 135°08'0 0.0
2016-Jun-30 15:30N 34°14' E 135°08'0 0.0
2016-Jun-30 14:33N 34°14' E 135°08'0 0.0
2016-Jun-30 13:33N 34°14' E 135°08'0 0.0
2016-Jun-30 12:33N 34°14' E 135°08'0 0.0
2016-Jun-30 11:30N 34°14' E 135°08'0 0.0
2016-Jun-30 10:33N 34°14' E 135°08'0 0.0
2016-Jun-30 09:33N 34°14' E 135°08'0 0.0
2016-Jun-30 08:30N 34°14' E 135°08'0 0.0
2016-Jun-30 07:33N 34°14' E 135°08'0 0.0
2016-Jun-30 06:27N 34°14' E 135°08'0 0.0
2016-Jun-30 05:33N 34°14' E 135°08'0 0.0
2016-Jun-30 04:33N 34°14' E 135°08'0 0.0
2016-Jun-30 03:33N 34°14' E 135°08'0 0.0
2016-Jun-30 02:33N 34°14' E 135°08'0 0.0
2016-Jun-30 01:33N 34°14' E 135°08'0 0.0
2016-Jun-30 00:33N 34°14' E 135°08'0 0.0
2016-Jun-29 23:33N 34°14' E 135°08'0 0.0
2016-Jun-29 22:33N 34°14' E 135°08'0 0.0
2016-Jun-29 21:33N 34°14' E 135°08'0 0.0
2016-Jun-29 20:33N 34°14' E 135°08'0 0.0
2016-Jun-29 19:33N 34°14' E 135°08'0 0.0
2016-Jun-29 18:33N 34°14' E 135°08'0 0.0
2016-Jun-29 17:30N 34°14' E 135°08'0 0.0
2016-Jun-29 16:33N 34°14' E 135°08'0 0.0
2016-Jun-29 15:30N 34°14' E 135°08'0 0.0
2016-Jun-29 14:33N 34°14' E 135°08'0 0.0
2016-Jun-29 13:33N 34°14' E 135°08'0 0.0
2016-Jun-29 12:33N 34°14' E 135°08'0 0.3
2016-Jun-29 11:33N 34°14' E 135°07'4 4.4
2016-Jun-29 10:33N 34°12' E 135°03'8 7.7
2016-Jun-29 09:33N 34°05' E 134°58'1110.6
2016-Jun-29 08:33N 33°55' E 134°56'26010.4
2016-Jun-28 07:33N 34°40' E 140°06'1211.6
2016-Jun-28 06:31N 34°47' E 140°18'2311.4
2016-Jun-28 04:31N 35°02' E 140°39'2311.5
2016-Jun-28 02:33N 35°20' E 140°56'34 9.9
2016-Jun-27 23:04N 35°54' E 140°59'611.6
2016-Jun-27 22:33N 35°57' E 140°52'8 7.8
2016-Jun-27 21:33N 35°58' E 140°43'3 1.6
2016-Jun-27 19:33N 35°55' E 140°41'0 0.0
2016-Jun-27 18:30N 35°55' E 140°41'0 0.0
2016-Jun-27 17:33N 35°55' E 140°41'0 0.0
2016-Jun-27 16:33N 35°55' E 140°41'0 0.0
2016-Jun-27 15:30N 35°55' E 140°41'0 0.0
2016-Jun-27 14:27N 35°55' E 140°41'0 0.0
2016-Jun-27 13:33N 35°55' E 140°41'0 0.0
2016-Jun-27 12:18N 35°55' E 140°41'0 0.0
2016-Jun-27 11:06N 35°55' E 140°41'0 0.0
2016-Jun-27 09:15N 35°55' E 140°41'0 0.0
2016-Jun-27 08:33N 35°55' E 140°41'0 0.0
2016-Jun-27 07:30N 35°55' E 140°41'0 0.0
2016-Jun-27 06:33N 35°55' E 140°41'0 0.0
2016-Jun-27 05:33N 35°55' E 140°41'0 0.0
2016-Jun-27 04:33N 35°55' E 140°41'0 0.0
2016-Jun-27 03:33N 35°55' E 140°41'0 0.0
2016-Jun-27 02:33N 35°55' E 140°41'0 0.0
2016-Jun-27 01:30N 35°55' E 140°41'0 0.0
2016-Jun-26 22:31N 35°55' E 140°41'0 0.0
2016-Jun-26 21:31N 35°55' E 140°41'0 0.0
2016-Jun-26 20:31N 35°55' E 140°41'0 0.0
2016-Jun-26 19:31N 35°55' E 140°41'0 0.0
2016-Jun-26 18:28N 35°55' E 140°41'0 0.0
2016-Jun-26 17:31N 35°55' E 140°41'0 0.0
2016-Jun-26 16:31N 35°55' E 140°41'0 0.0
2016-Jun-26 15:31N 35°55' E 140°41'0 0.0
2016-Jun-26 14:28N 35°55' E 140°41'0 0.0
2016-Jun-26 13:10N 35°55' E 140°41'0 0.0
2016-Jun-26 12:31N 35°55' E 140°41'0 0.0
2016-Jun-26 11:31N 35°55' E 140°41'0 0.0
2016-Jun-26 10:28N 35°55' E 140°41'0 0.0
2016-Jun-26 09:31N 35°55' E 140°41'0 0.0
2016-Jun-26 08:31N 35°55' E 140°41'0 0.0
2016-Jun-26 07:31N 35°55' E 140°41'0 0.0
2016-Jun-26 05:28N 35°55' E 140°41'0 0.0
2016-Jun-26 04:16N 35°55' E 140°41'0 0.0
2016-Jun-26 03:28N 35°55' E 140°41'0 0.0
2016-Jun-26 02:16N 35°55' E 140°41'0 0.0
2016-Jun-26 00:25N 35°55' E 140°41'0 0.0
2016-Jun-25 23:16N 35°55' E 140°41'0 0.0
2016-Jun-25 22:31N 35°55' E 140°41'0 0.0
2016-Jun-25 21:28N 35°55' E 140°41'0 0.0
2016-Jun-25 20:25N 35°55' E 140°41'0 0.0
2016-Jun-25 19:16N 35°55' E 140°41'0 0.0
2016-Jun-25 18:25N 35°55' E 140°41'0 0.0
2016-Jun-25 13:31N 35°55' E 140°41'1 1.0
2016-Jun-25 12:33N 35°56' E 140°42'7 6.6
2016-Jun-25 11:33N 36°01' E 140°47'5 5.0
2016-Jun-25 10:33N 36°00' E 140°53'6 6.0
2016-Jun-25 09:32N 36°00' E 141°01'  
Track history (hours):
 
Tides and Currents Weather Stations Pressure Air Temp Water Temp Dewpoint Dewpoint Depression Visibility Wind Speed Wind Dir Waves Ship Positions

Cape Peony

Last reported at 2016-Jul-02 01:03 UTC. Time now 2016-Jul-26 21:49 UTC.
Position N 33°54' E 134°55'.
Warning: this ship's position is 24 days out of date.

Length 292 m; draft 10.7 m.

Type: Cargo ship. MMSI: 373590000.

Date/timePositionNaut miles runAvg speedWind from/ knotsBaromVisibWave heightAir tempDewpointWater temp
2016-Jul-02 01:03N 33°54' E 134°55'510.2
2016-Jul-02 00:33N 33°59' E 134°55'10 9.5
2016-Jul-01 23:33N 34°08' E 134°59'9 8.8
2016-Jul-01 22:33N 34°14' E 135°06'2 1.7
2016-Jul-01 21:33N 34°14' E 135°08'0 0.0
2016-Jul-01 20:33N 34°14' E 135°08'0 0.0
2016-Jul-01 19:33N 34°14' E 135°08'0 0.0
2016-Jul-01 18:33N 34°14' E 135°08'0 0.0
2016-Jul-01 17:33N 34°14' E 135°08'0 0.0
2016-Jul-01 16:33N 34°14' E 135°08'0 0.0
2016-Jul-01 15:33N 34°14' E 135°08'0 0.0
2016-Jul-01 14:33N 34°14' E 135°08'0 0.0
2016-Jul-01 13:33N 34°14' E 135°08'0 0.0
2016-Jul-01 12:33N 34°14' E 135°08'0 0.0
2016-Jul-01 11:33N 34°14' E 135°08'0 0.0
2016-Jul-01 10:33N 34°14' E 135°08'0 0.0
2016-Jul-01 09:30N 34°14' E 135°08'0 0.0
2016-Jul-01 08:33N 34°14' E 135°08'0 0.0
2016-Jul-01 07:33N 34°14' E 135°08'0 0.0
2016-Jul-01 06:33N 34°14' E 135°08'0 0.0
2016-Jul-01 05:33N 34°14' E 135°08'0 0.0
2016-Jul-01 04:33N 34°14' E 135°08'0 0.0
2016-Jul-01 03:30N 34°14' E 135°08'0 0.0
2016-Jul-01 02:33N 34°14' E 135°08'0 0.0
2016-Jul-01 01:33N 34°14' E 135°08'0 0.0
2016-Jul-01 00:33N 34°14' E 135°08'0 0.0
2016-Jun-30 23:33N 34°14' E 135°08'0 0.0
2016-Jun-30 22:30N 34°14' E 135°08'0 0.0
2016-Jun-30 21:33N 34°14' E 135°08'0 0.0
2016-Jun-30 20:33N 34°14' E 135°08'0 0.0
2016-Jun-30 19:33N 34°14' E 135°08'0 0.0
2016-Jun-30 18:33N 34°14' E 135°08'0 0.0
2016-Jun-30 17:33N 34°14' E 135°08'0 0.0
2016-Jun-30 16:33N 34°14' E 135°08'0 0.0
2016-Jun-30 15:30N 34°14' E 135°08'0 0.0
2016-Jun-30 14:33N 34°14' E 135°08'0 0.0
2016-Jun-30 13:33N 34°14' E 135°08'0 0.0
2016-Jun-30 12:33N 34°14' E 135°08'0 0.0
2016-Jun-30 11:30N 34°14' E 135°08'0 0.0
2016-Jun-30 10:33N 34°14' E 135°08'0 0.0
2016-Jun-30 09:33N 34°14' E 135°08'0 0.0
2016-Jun-30 08:30N 34°14' E 135°08'0 0.0
2016-Jun-30 07:33N 34°14' E 135°08'0 0.0
2016-Jun-30 06:27N 34°14' E 135°08'0 0.0
2016-Jun-30 05:33N 34°14' E 135°08'0 0.0
2016-Jun-30 04:33N 34°14' E 135°08'0 0.0
2016-Jun-30 03:33N 34°14' E 135°08'0 0.0
2016-Jun-30 02:33N 34°14' E 135°08'0 0.0
2016-Jun-30 01:33N 34°14' E 135°08'0 0.0
2016-Jun-30 00:33N 34°14' E 135°08'0 0.0
2016-Jun-29 23:33N 34°14' E 135°08'0 0.0
2016-Jun-29 22:33N 34°14' E 135°08'0 0.0
2016-Jun-29 21:33N 34°14' E 135°08'0 0.0
2016-Jun-29 20:33N 34°14' E 135°08'0 0.0
2016-Jun-29 19:33N 34°14' E 135°08'0 0.0
2016-Jun-29 18:33N 34°14' E 135°08'0 0.0
2016-Jun-29 17:30N 34°14' E 135°08'0 0.0
2016-Jun-29 16:33N 34°14' E 135°08'0 0.0
2016-Jun-29 15:30N 34°14' E 135°08'0 0.0
2016-Jun-29 14:33N 34°14' E 135°08'0 0.0
2016-Jun-29 13:33N 34°14' E 135°08'0 0.0
2016-Jun-29 12:33N 34°14' E 135°08'0 0.3
2016-Jun-29 11:33N 34°14' E 135°07'4 4.4
2016-Jun-29 10:33N 34°12' E 135°03'8 7.7
2016-Jun-29 09:33N 34°05' E 134°58'1110.6
2016-Jun-29 08:33N 33°55' E 134°56'26010.4
2016-Jun-28 07:33N 34°40' E 140°06'1211.6
2016-Jun-28 06:31N 34°47' E 140°18'2311.4
2016-Jun-28 04:31N 35°02' E 140°39'2311.5
2016-Jun-28 02:33N 35°20' E 140°56'34 9.9
2016-Jun-27 23:04N 35°54' E 140°59'611.6
2016-Jun-27 22:33N 35°57' E 140°52'8 7.8
2016-Jun-27 21:33N 35°58' E 140°43'3 1.6
2016-Jun-27 19:33N 35°55' E 140°41'0 0.0
2016-Jun-27 18:30N 35°55' E 140°41'0 0.0
2016-Jun-27 17:33N 35°55' E 140°41'0 0.0
2016-Jun-27 16:33N 35°55' E 140°41'0 0.0
2016-Jun-27 15:30N 35°55' E 140°41'0 0.0
2016-Jun-27 14:27N 35°55' E 140°41'0 0.0
2016-Jun-27 13:33N 35°55' E 140°41'0 0.0
2016-Jun-27 12:18N 35°55' E 140°41'0 0.0
2016-Jun-27 11:06N 35°55' E 140°41'0 0.0
2016-Jun-27 09:15N 35°55' E 140°41'0 0.0
2016-Jun-27 08:33N 35°55' E 140°41'0 0.0
2016-Jun-27 07:30N 35°55' E 140°41'0 0.0
2016-Jun-27 06:33N 35°55' E 140°41'0 0.0
2016-Jun-27 05:33N 35°55' E 140°41'0 0.0
2016-Jun-27 04:33N 35°55' E 140°41'0 0.0
2016-Jun-27 03:33N 35°55' E 140°41'0 0.0
2016-Jun-27 02:33N 35°55' E 140°41'0 0.0
2016-Jun-27 01:30N 35°55' E 140°41'0 0.0
2016-Jun-26 22:31N 35°55' E 140°41'0 0.0
2016-Jun-26 21:31N 35°55' E 140°41'0 0.0
2016-Jun-26 20:31N 35°55' E 140°41'0 0.0
2016-Jun-26 19:31N 35°55' E 140°41'0 0.0
2016-Jun-26 18:28N 35°55' E 140°41'0 0.0
2016-Jun-26 17:31N 35°55' E 140°41'0 0.0
2016-Jun-26 16:31N 35°55' E 140°41'0 0.0
2016-Jun-26 15:31N 35°55' E 140°41'0 0.0
2016-Jun-26 14:28N 35°55' E 140°41'0 0.0
2016-Jun-26 13:10N 35°55' E 140°41'0 0.0
2016-Jun-26 12:31N 35°55' E 140°41'0 0.0
2016-Jun-26 11:31N 35°55' E 140°41'0 0.0
2016-Jun-26 10:28N 35°55' E 140°41'0 0.0
2016-Jun-26 09:31N 35°55' E 140°41'0 0.0
2016-Jun-26 08:31N 35°55' E 140°41'0 0.0
2016-Jun-26 07:31N 35°55' E 140°41'0 0.0
2016-Jun-26 05:28N 35°55' E 140°41'0 0.0
2016-Jun-26 04:16N 35°55' E 140°41'0 0.0
2016-Jun-26 03:28N 35°55' E 140°41'0 0.0
2016-Jun-26 02:16N 35°55' E 140°41'0 0.0
2016-Jun-26 00:25N 35°55' E 140°41'0 0.0
2016-Jun-25 23:16N 35°55' E 140°41'0 0.0
2016-Jun-25 22:31N 35°55' E 140°41'0 0.0
2016-Jun-25 21:28N 35°55' E 140°41'0 0.0
2016-Jun-25 20:25N 35°55' E 140°41'0 0.0
2016-Jun-25 19:16N 35°55' E 140°41'0 0.0
2016-Jun-25 18:25N 35°55' E 140°41'0 0.0
2016-Jun-25 13:31N 35°55' E 140°41'1 1.0
2016-Jun-25 12:33N 35°56' E 140°42'7 6.6
2016-Jun-25 11:33N 36°01' E 140°47'5 5.0
2016-Jun-25 10:33N 36°00' E 140°53'6 6.0
2016-Jun-25 09:32N 36°00' E 141°01'  

Dump ship's entire track history